STARLINK-2141, 47731

Orbit data source: Space-Track

STARLINK-2141, 47731 is a payload satellite owned by SpaceX/Seattle (US) in LEO that was launched on Thu, 04 Mar 2021 UTC via an FALCON 9 launch vehicle from the Air Force Eastern Test Range (AFETR). Payload-class satellites include a variety of spacecraft equipped with specific instruments for various scientific and technological missions. These include communications satellites like Starlink; space stations such as the ISS; scientific satellites like the Hubble; Earth observation satellites from companies like Planet Labs, Umbra, and HawkEye 360; GPS; miniature CubeSats for education and research; and military/defense satellites.

Loading next visibility...
Identifier
47731, 2021-017K
Orbit
LEO
Country
Flag of USUS
Related business
Manufacturer
SpaceX/Seattle
Mission
Operational Commercial Communications
Bus & Motor
STARLINK, Unknown motor
Mass
260 kg wet, ~248 kg dry
Launch date (UTC)
2021-03-04 (5 years ago)
Launch vehicle
FALCON 9
Launch site
Air Force Eastern Test Range (AFETR)
Object type
Payload
Rocket body
Debris
Shape & HBR
Box + 1 Pan, 10.1 m
Radar Cross Section
13.562 m², Large (>1 m²)

Expand to show TLE details & history
Last TLE update: 9 hours ago

TLE from 9 hours ago
0 STARLINK-2141
1 47731U 21017K   25347.01858305  .00006223  00000-0  43628-3 0  9993
2 47731  53.0537 240.7002 0001254 111.2462 248.8661 15.06400279264675
Epoch: 2025-12-13T00:26Z
TLE epoch observation values (Epoch: 2025-12-13T00:26:45.575Z)
Latitude
-0.00002°
Longitude
152.05841°
Altitude
548.403 km
Speed
7.589 km/s
True Right ascension
16h 02m 48s
True Declination
0° 00' 00"
Sunlit
Object was in daylight at epoch
Visualization orbit readout
Latitude
Unknown
Longitude
Unknown
Altitude
Unknown
Speed
Unknown
Apparent Right ascension
Unknown
Apparent Declination
Unknown
Sunlit
N/A
Visualization observer readout
Local Sidereal Time
07:26:33
Azimuth
Unknown
Elevation
Unknown
Doppler factor
Unknown
Orbital elements
Apogee altitude
548.35 km
Perigee altitude
546.613 km
Semi-major axis
6,925.619 km
Eccentricity
0.00013
Inclination
53.0537°
RAAN
240.7002°
Arg. of periapsis
111.2462°
True anomaly
248.8527°
Mean anomaly
248.8661°
Eccentric anomaly
248.8594°
Mean motion
3.76578 °/min
Orbital period
95.6 mins
BSTAR
0.00043628
Loading maneuver chart data...
Computing Atmospheric mass density...
Loading historical data...
Loading historical data...
Loading historical data...
Loading historical data...
Loading historical data...
Loading historical data...
Loading historical data...

Documentation

Showing up to 5 results
|